Location: Ste-F�licit�
(48.8999°N, 67.3360°W)
Time: 05:39:35
(UTC-05:00)

DELFI C3 - Pass Details

Date: 26 October 2020
Orbit: 532 x 551 km, 97.4° (Epoch: 28 November)

Event Time Altitude Azimuth Distance (km) Brightness Sun altitude
Exits shadow 20:06:14 16° 350° (N) 1,503 ? -28.1°
Drops below altitude 10° 20:07:03 10° 349° (N) 1,842 ? -28.2°
Sets 20:09:12 0° 349° (NNW) 2,740 ? -28.6°
